Weather in Gorno-Altaysk

Russia / Altai Republic     51°57′29″N   85°57′37″E
temp.,
°C
wind,
m/s
gust,
m/s
humid.,
%
clouds,
%
prec.,
mm/h
press.,
hPa
HPBL,
m
7 may, fri
fri701:00+14s3462100 0.0 100669
04:00+15s4857100 0.0 1006122
07:00+16sw3457100 0.0 100773
10:00+20w2646100 0.0 1008510
13:00+19w4759100 0.1 1010822
16:00+13wnw41094100 4.4 1014725
19:00+11sw2691100 7.4 1016312
22:00+10ssw2389100 0.1 101941
8 may, sat
sat801:00+9ssw2287100 0.1 102021
04:00+8ssw2289100 0.0 102017
07:00+8sw118713 0.0 102130
10:00+13wnw22625 0.0 1021768
13:00+16nw33481 0.0 10201272
16:00+17nw34390 0.0 10191284
19:00+16nnw12500 0.0 1019434
22:00+10sse22640 0.0 102013
9 may, sun
sun901:00+8s32690 0.0 102029
04:00+7s33720 0.0 102046
07:00+9s35730 0.0 101993
10:00+16sw224534 0.0 1018583
13:00+19nw233733 0.0 10161615
16:00+19nw343985 0.0 10151859
19:00+18nne1254100 0.0 101599
22:00+10nne22779 0.0 101613
10 may, mon
mon1001:00+7ne11797 0.0 101610
04:00+6ese01865 0.0 101510
07:00+7e118383 0.0 101464
10:00+13ne1265100 0.0 1012597
13:00+17ne3352100 0.0 10091084
16:00+18ne34505 0.0 10081125
19:00+16nne256199 0.2 1007324
22:00+11wnw1174100 0.1 100812
11 may, tue
tue1101:00+9wsw118374 0.1 100810
04:00+9w1183100 0.1 100813
07:00+9w1181100 0.4 100916
10:00+9nnw1178100 0.1 1010130
13:00+9nw1174100 0.1 1011296
16:00+8wsw1290100 0.9 1012185
19:00+8s2295100 4.0 101392
22:00+8sse0094100 0.1 101412